DW8587 Weather Reports


time (UTC)temp
C
wind
direction
speed
KPH
gust
KPH
rain 1hr
cm
rain 24hr
cm
rain mn
cm
humidity
%
barometer
mb
20260901020055 20 144 0.0 0.0 0.00 0.00 0.00 75 1014.1
20260901014549 20 144 0.0 0.0 0.00 0.00 0.00 75 1014.0
20260901013056 20 147 0.0 0.0 0.00 0.00 0.00 75 1014.1
20260901011548 20 147 0.0 0.0 0.00 0.00 0.00 74 1014.1
20260901010100 20 147 0.0 4.8 0.00 0.00 0.00 75 1014.0
20260901004542 21 147 3.2 6.4 0.00 0.00 0.00 71 1013.8
20260901003040 22 332 3.2 8.0 0.00 0.00 0.00 68 1013.6
20260901001539 22 360 4.8 8.0 0.00 0.00 0.00 70 1013.5
20260901000040 22 9 3.2 6.4 0.00 0.00 0.00 74 1013.5
20260831234536 22 337 4.8 9.7 0.00 0.00 0.00 76 1013.5
20260831233042 22 30 6.4 11.3 0.00 0.00 0.00 77 1013.5
20260831231537 22 335 3.2 6.4 0.00 0.00 0.00 78 1013.5
20260831230032 22 333 1.6 8.0 0.00 0.00 0.00 79 1013.4
20260831224531 22 336 4.8 8.0 0.00 0.00 0.00 79 1013.3
20260831223030 22 350 1.6 8.0 0.00 0.00 0.00 80 1013.3
20260831221534 22 37 3.2 6.4 0.00 0.00 0.00 79 1013.2
20260831220026 23 40 6.4 8.0 0.00 0.00 0.00 77 1013.3
20260831214524 23 39 1.6 4.8 0.00 0.00 0.00 76 1013.3
20260831213024 23 39 3.2 8.0 0.00 0.00 0.00 76 1013.1
20260831211523 23 42 6.4 9.7 0.00 0.00 0.00 75 1013.0
20260831210022 23 38 3.2 6.4 0.00 0.00 0.00 75 1012.9
20260831204522 23 40 3.2 8.0 0.00 0.00 0.00 75 1012.8
20260831203022 23 19 4.8 8.0 0.00 0.00 0.00 75 1012.8
20260831201524 23 41 4.8 8.0 0.00 0.00 0.00 75 1012.7
20260831200020 24 348 3.2 6.4 0.00 0.00 0.00 75 1012.6
20260831194521 24 26 4.8 9.7 0.00 0.00 0.00 74 1012.4
20260831193031 24 37 6.4 9.7 0.00 0.00 0.00 73 1012.3
20260831191519 25 38 3.2 6.4 0.00 0.00 0.00 72 1012.3
20260831190020 25 33 4.8 8.0 0.00 0.00 0.00 70 1012.1
20260831184519 26 333 0.0 4.8 0.00 0.00 0.00 67 1011.9
20260831183019 27 333 0.0 0.0 0.00 0.00 0.00 64 1011.7
20260831181518 27 333 1.6 3.2 0.00 0.00 0.00 62 1011.6
20260831180021 28 333 0.0 3.2 0.00 0.00 0.00 59 1011.5
20260831174520 29 333 3.2 9.7 0.00 0.00 0.00 56 1011.4
20260831173018 29 310 3.2 6.4 0.00 0.00 0.00 55 1011.4
20260831171519 30 32 1.6 6.4 0.00 0.00 0.00 53 1011.4
20260831170033 30 209 0.0 3.2 0.00 0.00 0.00 53 1011.4
20260831164520 30 280 3.2 8.0 0.00 0.00 0.00 52 1011.4
20260831163016 31 252 1.6 6.4 0.00 0.00 0.00 51 1011.5
20260831161512 31 251 1.6 8.0 0.00 0.00 0.00 52 1011.6
20260831160014 31 236 3.2 8.0 0.00 0.00 0.00 51 1011.7
20260831154526 31 224 3.2 8.0 0.00 0.00 0.00 51 1011.7
20260831153010 31 297 3.2 12.9 0.00 0.00 0.00 52 1011.8
20260831151509 31 296 4.8 16.1 0.00 0.00 0.00 52 1011.8
20260831150007 31 252 4.8 14.5 0.00 0.00 0.00 51 1012.0
20260831144506 31 196 9.7 16.1 0.00 0.00 0.00 51 1011.9
20260831143005 31 240 3.2 14.5 0.00 0.00 0.00 53 1012.0
20260831141503 31 242 8.0 12.9 0.00 0.00 0.00 53 1012.0
20260831140003 30 160 1.6 8.0 0.00 0.00 0.00 53 1012.0
20260831134600 30 167 6.4 14.5 0.00 0.00 0.00 52 1012.0
20260831133104 30 207 4.8 14.5 0.00 0.00 0.00 52 1012.2
20260831131601 30 82 3.2 8.0 0.00 0.00 0.00 51 1012.2
20260831130101 30 222 8.0 17.7 0.00 0.00 0.00 53 1012.3
20260831124605 30 199 3.2 11.3 0.00 0.00 0.00 51 1012.5
20260831123054 30 175 9.7 14.5 0.00 0.00 0.00 51 1012.6
20260831121554 30 304 3.2 12.9 0.00 0.00 0.00 52 1012.7
20260831120055 30 210 4.8 12.9 0.00 0.00 0.00 52 1012.7
20260831114550 30 241 3.2 8.0 0.00 0.00 0.00 53 1012.9
20260831113048 30 319 1.6 6.4 0.00 0.00 0.00 54 1013.0
20260831111544 30 74 0.0 9.7 0.00 0.00 0.00 55 1013.1
20260831110045 29 88 3.2 16.1 0.00 0.00 0.00 55 1013.3
20260831104558 29 224 4.8 11.3 0.00 0.00 0.00 55 1013.3
20260831103037 28 355 4.8 16.1 0.00 0.00 0.00 56 1013.4
20260831101534 28 269 3.2 12.9 0.00 0.00 0.00 54 1013.4
20260831100036 28 242 3.2 6.4 0.00 0.00 0.00 54 1013.6
20260831094537 28 261 4.8 11.3 0.00 0.00 0.00 55 1013.7
20260831093031 28 332 3.2 11.3 0.00 0.00 0.00 56 1013.8
20260831091522 27 193 3.2 11.3 0.00 0.00 0.00 59 1013.8
20260831090020 28 98 0.0 6.4 0.00 0.00 0.00 59 1013.8
20260831084527 27 28 4.8 9.7 0.00 0.00 0.00 59 1013.7
20260831083024 27 114 3.2 6.4 0.00 0.00 0.00 62 1013.7
20260831081507 26 57 4.8 9.7 0.00 0.00 0.00 62 1013.6
20260831080009 26 250 0.0 3.2 0.00 0.00 0.00 64 1013.6
20260831074559 26 148 1.6 4.8 0.00 0.00 0.00 63 1013.6
20260831073055 27 81 0.0 3.2 0.00 0.00 0.00 63 1013.5
20260831071550 26 105 1.6 3.2 0.00 0.00 0.00 65 1013.5
20260831070049 25 347 1.6 6.4 0.00 0.00 0.00 68 1013.4
20260831064542 23 351 3.2 8.0 0.00 0.00 0.00 70 1013.5
20260831063038 23 42 4.8 8.0 0.00 0.00 0.00 71 1013.5
20260831061532 22 19 4.8 8.0 0.00 0.00 0.00 74 1013.6
20260831060027 22 53 3.2 4.8 0.00 0.00 0.00 77 1013.6
20260831054523 21 40 3.2 6.4 0.00 0.00 0.00 79 1013.5
20260831053020 21 38 3.2 6.4 0.00 0.00 0.00 81 1013.4
20260831051516 21 32 3.2 8.0 0.00 0.00 0.00 81 1013.3
20260831050014 21 40 3.2 8.0 0.00 0.00 0.00 80 1013.1
20260831044518 21 348 6.4 8.0 0.00 0.00 0.00 79 1013.1
20260831043010 21 37 4.8 8.0 0.00 0.00 0.00 78 1013.1
20260831041507 21 350 4.8 6.4 0.00 0.00 0.00 78 1013.2
20260831040006 21 28 1.6 3.2 0.00 0.00 0.00 78 1013.1
20260831034506 21 28 1.6 4.8 0.00 0.00 0.00 78 1013.1
20260831033006 21 24 1.6 4.8 0.00 0.00 0.00 78 1013.2
20260831031507 22 340 0.0 1.6 0.00 0.00 0.00 77 1013.3
20260831030004 22 340 0.0 4.8 0.00 0.00 0.00 77 1013.5
20260831024504 21 340 3.2 8.0 0.00 0.00 0.00 78 1013.5
20260831023004 21 11 3.2 4.8 0.00 0.00 0.00 79 1013.3
20260831021503 21 30 3.2 8.0 0.00 0.00 0.00 79 1013.2